Simultaneous Nadir Overpasses (SNOs) Predictions

Prediction of SNOs between AQUA and METOP-C Satellite Orbit:

Table of predicted SNOs for the next 14.0 days since TLE Epoch: 3/30/2024
Index Date (AQUA) Time (AQUA) Lat,Lon (AQUA) SZA (AQUA ) Date (METOP-C) Time (METOP-C) Lat,Lon (METOP-C) SZA (METOP-C ) Distance(km) Time Diff (sec)
1 04/01/2024 13:02:49 -75.23, 162.08 109.69 04/01/2024 13:02:01 -75.26, 162.14 109.66 3.28 48
2 04/01/2024 13:52:13 75.28, -30.39 70.35 04/01/2024 13:52:40 75.29, -30.44 70.36 1.62 27
3 04/04/2024 05:14:09 -75.24, -80.72 110.71 04/04/2024 05:13:37 -75.23, -80.84 110.71 3.31 32
4 04/04/2024 06:03:33 75.29, 86.80 69.33 04/04/2024 06:04:15 75.31, 86.73 69.35 3.33 42
5 04/06/2024 21:25:29 -75.29, 36.35 111.68 04/06/2024 21:25:12 -75.29, 36.42 111.67 2.01 17
6 04/06/2024 22:14:53 75.34,-156.15 68.37 04/06/2024 22:15:51 75.32,-156.14 68.35 2.35 58
7 04/09/2024 12:47:22 75.20, -13.84 67.25 04/09/2024 12:46:09 75.15, -14.21 67.21 11.80 73
8 04/09/2024 13:36:46 -75.29, 153.57 112.67 04/09/2024 13:36:48 -75.28, 153.50 112.68 2.22 2
9 04/09/2024 14:26:12 75.45, -39.22 67.48 04/09/2024 14:27:24 75.46, -38.62 67.49 16.66 72
10 04/12/2024 04:58:38 75.25, 103.25 66.32 04/12/2024 04:57:42 75.28, 103.26 66.35 2.84 56
11 04/12/2024 05:48:02 -75.34, -89.34 113.61 04/12/2024 05:48:23 -75.31, -89.32 113.64 3.56 21



Historial Predications of SNOs between AQUA and METOP-C
